{"data":{"norad_id":37168,"intl_designator":"2010-048A","name":"SBSS (USA 216)","alt_names":[],"object_type":"PAYLOAD","status":"ACTIVE","operator":null,"country":"US","launch_date":"2010-09-26","launch_site_code":"AFWTR","launch_vehicle":null,"mission":null,"orbit_class":"UNKNOWN","rcs_meters":3.8408,"size_class":null,"mass_kg":null,"dimensions":null,"purposes":[],"wikipedia_slug":null,"has_3d_model":false,"image_url":null,"decayed_at":null,"tle_current":{"epoch":"2026-09-20T04:45:44.108352Z","epoch_age_seconds":51851,"freshness":"FRESH","line1":"1 37168U 10048A   26263.19842718  .00002357  00000+0  11343-3 0  9998","line2":"2 37168  97.7171 150.4710 0078370 234.8924 221.9584 15.17173317866876","mean_motion":15.17173317,"eccentricity":0.007837,"inclination_deg":97.7171,"raan_deg":150.471,"arg_perigee_deg":234.8924,"mean_anomaly_deg":221.9584,"bstar":0.00011343,"rev_number":86687,"period_min":94.913348650726,"perigee_km":460.3717112589,"apogee_km":568.40515489696,"semimajor_km":6892.5254330779,"source":"CELESTRAK","updated_at":"2026-09-20T09:00:13.792069Z"}}}